Flag for Brazil Weather past 2 weeks in Campinas, São Paulo, Brazil

Now
79 °F

Partly sunny.


Feels Like: 81 °F
Forecast: 70 / 86 °F
Wind: 9 mph from Northwest

Location: Campinas Aeroporto

Current Time: Jan 28, 2015 at 12:14:58 PM

Latest Report: Jan 28, 2015 at 11:00 AM


Visibility: N/A

Pressure: 30.09 "Hg

Humidity: 65%

Dew point: 66 °F

Location of CampinasLocation

Historic Weather in Campinas — Graph

°F

Campinas temperature yesterday

Maximum temperature yesterday: 82 °F (at 4:00 PM)
Minimum temperature yesterday: 68 °F (at 6:00 AM)
Average temperature yesterday: 75 °F

Past Weeks' High & Low Weather Summary

 TemperatureHumidityPressure
High99 °F (Jan 19, 5:00 PM)100% (Jan 21, 3:00 AM)30.12 "Hg (Jan 21, 3:00 AM)
Low41 °F (Jan 21, 10:00 PM)22% (Jan 19, 5:00 PM)29.86 "Hg (Jan 20, 6:00 PM)
Average80 °F62%30.02 "Hg
* Reported Jan 13 11:00 AM — Jan 28 11:00 AM, Campinas, Weather by CustomWeather, © 2014

Note: Actual official high and low records may vary slightly from our data, if they occured in-between our weather recording intervals... More about our weather records

Advertising

Campinas weather history for previous 24 hours

 ConditionsComfort  
Time TempWeatherWind HumidityBarometerVisibility
11:00 AM
Jan 28
79 °FPartly sunny.9 mph65%30.09 "HgN/A
10:00 AM79 °FPartly sunny.10 mph65%30.09 "HgN/A
9:00 AM75 °FSunny.7 mph78%30.07 "Hg10 mi
8:00 AM72 °FSunny.3 mph88%30.04 "Hg10 mi
7:00 AM70 °FSunny.7 mph94%30.04 "Hg10 mi
6:00 AM70 °FClear.6 mph94%30.01 "Hg10 mi
5:00 AM72 °FPassing clouds.5 mph88%30.01 "HgN/A
4:00 AM72 °FPassing clouds.6 mph88%30.04 "HgN/A
3:00 AM73 °FClear.5 mph83%30.04 "Hg10 mi
2:00 AM73 °FPassing clouds.6 mph89%30.04 "HgN/A
1:00 AM75 °FPassing clouds.5 mph78%30.04 "HgN/A
12:00 AM75 °FPassing clouds.3 mph78%30.04 "HgN/A
11:00 PM
Jan 27
75 °FThundershowers. Passing clouds.6 mph78%N/AN/A
10:00 PM75 °FThundershowers. Passing clouds.7 mph78%N/AN/A
9:00 PM77 °FThundershowers. Passing clouds.No wind74%N/AN/A
8:00 PM79 °FPassing clouds.5 mph61%29.98 "HgN/A
7:00 PM77 °FThunderstorms. Broken clouds.12 mph69%29.98 "HgN/A
6:00 PM82 °FScattered clouds.5 mph55%29.95 "HgN/A
5:00 PM82 °FScattered showers. Scattered clouds.3 mph55%N/AN/A
4:00 PM82 °FScattered clouds.7 mph55%30.01 "HgN/A
3:00 PM81 °FScattered clouds.7 mph62%30.09 "HgN/A
2:00 PM81 °FPartly sunny.8 mph62%30.07 "HgN/A
1:00 PM81 °FPartly sunny.9 mph62%30.09 "HgN/A
12:00 PM79 °FPartly sunny.8 mph65%30.09 "HgN/A
Weather by CustomWeather, © 2014

See weather overviewHow to use our weather pages